TimeCST,TemperatureF,Dew PointF,Humidity,Sea Level PressureIn,VisibilityMPH,Wind Direction,Wind SpeedMPH,Gust SpeedMPH,PrecipitationIn,Events,Conditions,WindDirDegrees,DateUTC
12:15 AM,19.4,17.6,93,29.80,10.0,NE,21.9,27.6,N/A,,Scattered Clouds,40,2013-02-04 06:15:00
12:35 AM,17.6,17.6,100,29.80,10.0,NE,21.9,27.6,N/A,,Overcast,40,2013-02-04 06:35:00
12:55 AM,17.6,17.6,100,29.82,10.0,NE,20.7,-,N/A,,Overcast,40,2013-02-04 06:55:00
1:15 AM,17.6,15.8,93,29.82,10.0,NE,21.9,-,N/A,,Overcast,40,2013-02-04 07:15:00
1:35 AM,17.6,15.8,93,29.83,10.0,NE,17.3,26.5,N/A,,Overcast,40,2013-02-04 07:35:00
1:55 AM,17.6,15.8,93,29.84,10.0,NNE,13.8,27.6,N/A,,Overcast,30,2013-02-04 07:55:00
2:15 AM,17.6,15.8,93,29.84,10.0,NE,18.4,-,N/A,,Overcast,40,2013-02-04 08:15:00
2:35 AM,17.6,15.8,93,29.86,10.0,NNE,15.0,21.9,N/A,,Overcast,30,2013-02-04 08:35:00
2:55 AM,17.6,15.8,93,29.86,10.0,NNE,16.1,21.9,N/A,,Overcast,30,2013-02-04 08:55:00
3:15 AM,15.8,15.8,100,29.88,10.0,NNE,13.8,-,N/A,,Overcast,20,2013-02-04 09:15:00
4:55 AM,15.8,14.0,93,29.92,10.0,North,10.4,-,N/A,,Overcast,10,2013-02-04 10:55:00
5:15 AM,15.8,12.2,86,29.93,10.0,NNE,17.3,-,N/A,,Overcast,20,2013-02-04 11:15:00
5:35 AM,15.8,12.2,86,29.93,10.0,NNE,16.1,-,N/A,,Overcast,20,2013-02-04 11:35:00
5:55 AM,14.0,12.2,93,29.94,10.0,NNE,15.0,-,N/A,,Overcast,20,2013-02-04 11:55:00
6:15 AM,14.0,12.2,93,29.96,10.0,North,13.8,-,N/A,Rain,Freezing Rain,10,2013-02-04 12:15:00
6:55 AM,14.0,10.4,86,29.96,10.0,North,12.7,-,N/A,,Overcast,10,2013-02-04 12:55:00
7:15 AM,14.0,10.4,86,29.97,-9999.0,North,10.4,-,N/A,,Unknown,360,2013-02-04 13:15:00
7:35 AM,12.2,8.6,85,29.98,10.0,North,13.8,-,N/A,,Overcast,10,2013-02-04 13:35:00
7:55 AM,12.2,8.6,85,29.98,10.0,North,12.7,-,N/A,,Overcast,10,2013-02-04 13:55:00
8:15 AM,12.2,6.8,79,29.97,10.0,North,12.7,-,N/A,,Overcast,10,2013-02-04 14:15:00
8:35 AM,12.2,8.6,85,29.98,9.0,North,11.5,-,N/A,,Overcast,10,2013-02-04 14:35:00
8:55 AM,12.2,8.6,85,30.01,8.0,North,9.2,-,N/A,Snow,Light Snow,10,2013-02-04 14:55:00
9:15 AM,12.2,8.6,85,30.02,8.0,North,10.4,-,N/A,,Overcast,350,2013-02-04 15:15:00
9:35 AM,12.2,8.6,85,30.02,8.0,North,10.4,-,N/A,Snow,Light Snow,10,2013-02-04 15:35:00
9:55 AM,14.0,8.6,79,30.02,8.0,North,6.9,-,N/A,Snow,Light Snow,350,2013-02-04 15:55:00
10:15 AM,14.0,8.6,79,30.01,9.0,North,9.2,-,N/A,,Mostly Cloudy,10,2013-02-04 16:15:00
10:35 AM,14.0,8.6,79,30.00,9.0,NNE,8.1,-,N/A,,Mostly Cloudy,20,2013-02-04 16:35:00
10:55 AM,15.8,8.6,73,30.00,10.0,Variable,4.6,-,N/A,,Scattered Clouds,0,2013-02-04 16:55:00
11:15 AM,15.8,10.4,79,29.99,10.0,ENE,6.9,-,N/A,,Clear,60,2013-02-04 17:15:00
11:35 AM,17.6,12.2,79,29.98,10.0,ENE,6.9,-,N/A,,Clear,60,2013-02-04 17:35:00
11:55 AM,17.6,10.4,73,29.98,10.0,Calm,Calm,-,N/A,,Clear,0,2013-02-04 17:55:00
12:15 PM,17.6,10.4,73,29.98,10.0,Calm,Calm,-,N/A,,Clear,0,2013-02-04 18:15:00
12:35 PM,19.4,12.2,74,29.98,10.0,Calm,Calm,-,N/A,,Clear,0,2013-02-04 18:35:00
12:55 PM,19.4,12.2,74,29.98,10.0,Variable,6.9,-,N/A,,Scattered Clouds,0,2013-02-04 18:55:00
1:15 PM,19.4,14.0,80,29.98,10.0,WSW,6.9,-,N/A,,Mostly Cloudy,250,2013-02-04 19:15:00
1:35 PM,19.4,14.0,80,29.97,10.0,WSW,5.8,-,N/A,,Mostly Cloudy,250,2013-02-04 19:35:00
1:55 PM,21.2,14.0,74,29.96,10.0,West,8.1,-,N/A,,Mostly Cloudy,270,2013-02-04 19:55:00
2:15 PM,21.2,14.0,74,29.94,10.0,Variable,3.5,-,N/A,,Overcast,0,2013-02-04 20:15:00
2:35 PM,21.2,15.8,80,29.94,10.0,WSW,6.9,-,N/A,,Overcast,250,2013-02-04 20:35:00
2:55 PM,21.2,15.8,80,29.94,10.0,West,5.8,-,N/A,,Overcast,260,2013-02-04 20:55:00
3:15 PM,21.2,15.8,80,29.94,10.0,West,6.9,-,N/A,,Overcast,270,2013-02-04 21:15:00
3:35 PM,21.2,15.8,80,29.92,10.0,West,4.6,-,N/A,,Overcast,280,2013-02-04 21:35:00
3:55 PM,21.2,15.8,80,29.92,10.0,WSW,5.8,-,N/A,,Mostly Cloudy,250,2013-02-04 21:55:00
4:15 PM,21.2,15.8,80,29.91,10.0,South,4.6,-,N/A,,Overcast,190,2013-02-04 22:15:00
4:35 PM,21.2,15.8,80,29.91,10.0,SW,5.8,-,N/A,,Overcast,220,2013-02-04 22:35:00
4:55 PM,21.2,15.8,80,29.89,10.0,SSW,5.8,-,N/A,,Overcast,210,2013-02-04 22:55:00
5:15 PM,21.2,15.8,80,29.89,10.0,South,8.1,-,N/A,,Overcast,190,2013-02-04 23:15:00
5:35 PM,21.2,17.6,86,29.89,10.0,SSW,9.2,-,N/A,,Overcast,210,2013-02-04 23:35:00
5:55 PM,21.2,17.6,86,29.88,10.0,South,11.5,-,N/A,,Overcast,190,2013-02-04 23:55:00
6:15 PM,21.2,17.6,86,29.87,10.0,South,9.2,-,N/A,,Overcast,190,2013-02-05 00:15:00
6:35 PM,21.2,17.6,86,29.86,10.0,South,8.1,-,N/A,,Overcast,190,2013-02-05 00:35:00
6:55 PM,21.2,17.6,86,29.86,10.0,South,10.4,-,N/A,,Overcast,180,2013-02-05 00:55:00
7:15 PM,21.2,17.6,86,29.84,10.0,South,9.2,-,N/A,,Overcast,170,2013-02-05 01:15:00
7:35 PM,21.2,19.4,93,29.84,10.0,South,9.2,15.0,N/A,,Overcast,190,2013-02-05 01:35:00
7:55 PM,21.2,19.4,93,29.84,10.0,SSW,10.4,-,N/A,,Overcast,200,2013-02-05 01:55:00
8:15 PM,23.0,19.4,86,29.85,10.0,SSW,10.4,-,N/A,,Overcast,210,2013-02-05 02:15:00
8:35 PM,23.0,19.4,86,29.84,10.0,SSW,8.1,-,N/A,,Overcast,210,2013-02-05 02:35:00
8:55 PM,23.0,19.4,86,29.83,7.0,SSW,5.8,-,N/A,,Overcast,200,2013-02-05 02:55:00
9:15 PM,23.0,19.4,86,29.82,6.0,SSW,9.2,-,N/A,,Overcast,200,2013-02-05 03:15:00
9:35 PM,23.0,19.4,86,29.81,7.0,SSW,13.8,-,N/A,,Overcast,200,2013-02-05 03:35:00
9:55 PM,23.0,21.2,93,29.82,7.0,SSW,9.2,-,N/A,,Overcast,200,2013-02-05 03:55:00
10:15 PM,23.0,21.2,93,29.82,7.0,SSW,6.9,-,N/A,,Overcast,210,2013-02-05 04:15:00
10:35 PM,23.0,21.2,93,29.80,6.0,South,8.1,-,N/A,,Mostly Cloudy,190,2013-02-05 04:35:00
10:55 PM,23.0,21.2,93,29.79,6.0,South,10.4,-,N/A,,Mostly Cloudy,190,2013-02-05 04:55:00
11:15 PM,23.0,21.2,93,29.78,7.0,South,10.4,-,N/A,,Overcast,190,2013-02-05 05:15:00
11:35 PM,23.0,21.2,93,29.78,8.0,South,13.8,-,N/A,,Overcast,190,2013-02-05 05:35:00
11:55 PM,23.0,23.0,100,29.77,9.0,SSW,11.5,-,N/A,,Overcast,200,2013-02-05 05:55:00